Regional Weather Roundup
Issued by NWS Grand Forks, ND

Home | Current Version | Previous Version | Text Only | Print | Product List | Glossary Off
Versions: 1 2 3 4 5 6 7 8 9 10 11 12 13 14 15 16 17 18 19 20 21 22 23 24 25 26 27 28 29 30 31 32 33 34 35 36 37 38 39 40 41 42 43 44 45 46 47 48 49 50

000
ASUS43 KFGF 040810
RWRFGF
PRAIRIE TO PINES  WEATHER ROUNDUP
NATIONAL WEATHER SERVICE EASTERN NORTH DAKOTA/GRAND FORKS ND
300 AM CDT TUE AUG 04 2015

 **SATELLITE DATA USED TO AUGMENT SKY COVER AT AUTOMATED STATIONS**
 *****  WEATHER ACROSS EASTERN NORTH DAKOTA  *****

CITY           SKY/WX    TMP DP  RH WIND       PRES   REMARKS
GRAND FORKS    CLEAR     50  48  93 NW5       29.94S
GRAND FRKS AFB CLEAR     52  48  89 N5        29.95S
GRAND FRKS NWS   N/A     54 N/A N/A NW1         N/A
DEVILS LAKE    CLEAR     59  48  67 CALM      29.97R
FARGO          CLEAR     56  49  77 SW5       29.95R
WAHPETON ARPT  SUNNY     52  46  82 CALM      29.96S
$$

 ***** WEATHER ACROSS CENTRAL AND WESTERN NORTH DAKOTA  *****

CITY           SKY/WX    TMP DP  RH WIND       PRES   REMARKS
BISMARCK       CLEAR     56  49  77 E3        29.98S
MINOT          CLEAR     57  50  77 W3        29.97S
JAMESTOWN      CLEAR     55  53  93 CALM      29.97S
MINOT AFB      CLEAR     51  49  93 CALM      29.96S
GARRISON         N/A     55  50  83 NE3       29.98F
WILLISTON      CLEAR     65  51  60 CALM      29.97S
DICKINSON      CLEAR     54  49  83 E8        29.97S
HETTINGER      MOCLDY    60  51  72 E7        29.99S
$$

 *****  OTHER AIRPORT OBSERVATIONS IN OUR AREA  *****

CITY           SKY/WX    TMP DP  RH WIND       PRES   REMARKS
WALHALLA       FAIR      50  50 100 MISG      29.98S
GRAFTON AIRPOR FAIR      55  54  94 NW6       29.96S
VALLEY CITY AR FAIR      54  54 100 CALM      29.97S
CANDO          NOT AVBL
CAVALIER APRT  FAIR      55  50  82 N3        29.97S
GWINNER          N/A     54  50  87 W5        29.97S
ROLLA          FAIR      46  45  93 N5        30.01R
 ***** THE ABOVE OBSERVATIONS ARE NON NWS ARE NOT QUALITY
       CONTROLLED AND MAY MIS-REPORT RAIN FOR SNOW...
$$

  *****  WEATHER ACROSS NORTHERN MINNESOTA  *****

CITY           SKY/WX    TMP DP  RH WIND       PRES   REMARKS
FLAG ISLAND    CLEAR     59  55  88 NW12      29.93R
WARROAD        CLEAR     54  52  94 NW5       29.95R
ROSEAU         CLEAR     54  48  82 CALM      29.96R
HALLOCK        MOCLDY    52  48  87 N3        29.96R
THF RVR FALLS  PTCLDY    57  48  72 CALM      29.95S
BAUDETTE       CLEAR     52  49  89 W5        29.92S
WASKISH        CLEAR     59  54  82 NW3       29.94R
CROOKSTON      CLEAR     54  50  87 CALM      29.95S
STEPHEN NDAWN    N/A     52  48  87 NW3         N/A
GREENBUSH NDAW   N/A     48  48 100 NW1         N/A
$$
  *****  WEATHER ACROSS CENTRAL AND WEST MINNESOTA  *****

CITY           SKY/WX    TMP DP  RH WIND       PRES   REMARKS
FOSSTON        PTCLDY    46  46 100 S5        29.96S
BEMIDJI        CLEAR     49  45  85 CALM      29.95S
PARK RAPIDS    CLEAR     52  48  86 CALM      29.96S
ELBOW LAKE     FAIR      55  53  94 S5        29.97S
WADENA         CLEAR     50  46  87 CALM      29.96R
DETROIT LAKES  CLEAR     59  52  77 CALM      29.97R
MOORHEAD       CLEAR     54  48  82 SW5       29.96R
FERGUS FALLS   CLEAR     55  55 100 CALM      29.97R
MORRIS MN      CLEAR     52  48  87 CALM      29.96S
STAPLES        CLEAR     52  48  87 CALM      29.96S
$$
  *****  WEATHER ELSEWHERE ACROSS MINNESOTA  *****

CITY           SKY/WX    TMP DP  RH WIND       PRES   REMARKS
DULUTH         MOCLDY    54  50  86 W8        29.91S
INTRNTL FALLS  CLEAR     42  42 100 CALM      29.91S
ELY            CLEAR     52  50  93 CALM      29.90S
CLOQUET        CLEAR     55  50  82 W5        29.92S
WHEATON        CLEAR     54  52  94 CALM      29.98S
BRAINERD       CLEAR     50  48  93 S3        29.95S
HIBBING        PTCLDY    47  45  93 W3        29.92S
ALEXANDRIA     CLEAR     55  52  89 SW3       29.98S
SAINT CLOUD    CLEAR     52  50  93 CALM      29.96R
MINNEAPOLIS    CLEAR     63  54  72 SW3       29.96R
$$

  *****  WEATHER ACROSS SOUTH DAKOTA  *****

CITY           SKY/WX    TMP DP  RH WIND       PRES   REMARKS
SIOUX FALLS    CLEAR     58  56  93 NE5       29.96F
BROOKINGS      CLEAR     55  52  88 CALM      29.99F
WATERTOWN      CLEAR     56  50  80 N3        29.98S
HURON          PTCLDY    61  55  81 SE7       29.94F
SISSETON         N/A     52  49  89 CALM      29.95F
ABERDEEN       CLEAR     57  51  80 CALM      29.96S
MITCHELL       CLEAR     59  57  93 E5        29.95F
PIERRE         MOCLDY    65  56  72 E7        29.91F
MOBRIDGE       CLEAR     62  56  80 E8        29.93F
RAPID CITY     CLOUDY    68  59  73 E12       29.95F
$$

  *****  SOME WEATHER IN NEARBY STATES *****

CITY           SKY/WX    TMP DP  RH WIND       PRES   REMARKS
GLASGOW MT     PTCLDY    67  46  47 E17       29.88F
GREAT FALLS MT CLOUDY    71  44  37 SW13      29.82S
CHEYENNE WY    CLOUDY    64  46  52 W9        30.08F
SCOTTSBLUFF NE PTCLDY    65  55  70 E3        29.97F
OMAHA NE       MOCLDY    72  62  71 E8        29.95F
DES MOINES IA  PTCLDY    69  59  70 CALM      29.94F
DAVENPORT IA   CLEAR     57  54  89 NW3       29.96R
CHICAGO IL     CLEAR     63  55  75 W3        29.91S
EAU CLAIRE WI  CLEAR     58  53  84 W3        29.93R
LA CROSSE WI   CLEAR     61  56  83 SE3       29.93R
$$

  *****  SOME NATIONAL WEATHER *****

CITY           SKY/WX    TMP DP  RH WIND       PRES   REMARKS
LA GUARDIA NY  TSTM      79  65  62 W14G22    29.81S
RALEIGH NC     PTCLDY    75  71  87 SW6       29.96S
ATLANTA GA     MOCLDY    78  66  66 CALM      29.96S
NEW ORLEANS LA PTCLDY    80  74  81 CALM      29.92S
OKLAHOMA CITY  CLOUDY    74  69  85 SE7       29.91F
ALBUQUERQUE NM PTCLDY    72  50  45 W5        30.14R
SALT LAKE CITY MOCLDY    63  55  75 SE6       30.08R
LOS ANGELES CA PTCLDY    68  64  87 SW6       29.88S
BOISE ID       LGT RAIN  72  51  47 NW29G39   29.98R
SEATTLE WA     PTCLDY    63  56  78 SW3       29.98R
$$

*** WEATHER ACROSS MANITOBA...SASKATCHEWAN AND ONTARIO ***
                ***ONTARIO***

CITY           SKY/WX    TMP DP  RH WIND       PRES   REMARKS
GERALDTON      DRZL/FOG  52  50  93 NW6       29.80S VSB 3/4
THUNDER BAY    MOCLDY    55  54  94 NW5       29.85R
SIOUX LOOKOUT  CLOUDY    50  48  93 N3        29.90R
TORONTO        CLOUDY    66  55  68 NW8       29.83R
BIG TROUT LK   CLOUDY    50  48  93 N7        29.90R
PICKLE LAKE    NOT AVBL
DRYDEN         CLOUDY    52  50  93 N5        29.92R
KENORA         MOCLDY    54  50  87 N2        29.94R
$$
                *** MANITOBA***

CITY           SKY/WX    TMP DP  RH WIND       PRES   REMARKS
BRANDON        CLEAR     48  46  93 NE6       30.00S
DAUPHIN        CLEAR     46  46 100 W5        30.01R
ISLAND LAKE    PTCLDY    52  50  93 N3        29.97S
PILOT MOUND      N/A     50  46  87 CALM        N/A
THE PAS        CLEAR     50  48  93 CALM      30.01R
THOMPSON       LGT RAIN  54  54 100 NW5       29.99S
WINNIPEG       PTCLDY    48  46  93 NW6       29.98R
LYNN LAKE      CLOUDY    57  52  82 NE5       30.02R
CHURCHILL      DRIZZLE   46  45  93 NE12      29.98S
GILLAM         LGT RAIN  52  50  93 NW3       29.97S
$$
                ***SASKATCHEWAN***

CITY           SKY/WX    TMP DP  RH WIND       PRES   REMARKS
ESTEVAN        PTCLDY    52  48  87 E7        29.98F
KINDERSLEY     MOCLDY    63  54  72 E16       29.87S
LLOYDMINSTER   CLOUDY    64  52  63 SE20      29.88S
PRINCE ALBERT  MOCLDY    55  54  94 E5        29.97S
REGINA         CLEAR     59  50  72 E9        29.99S
YORKTON        CLEAR     48  46  93 CALM      30.00S
N. BATTLEFORD  PTCLDY    61  54  77 E14       29.93S
LA RONGE       MOCLDY    61  50  67 SE8       29.99R
SASKATOON      PTCLDY    64  52  63 SE9       29.97F
SWIFT CURRENT  CLEAR     61  54  77 SE16      29.90F
$$
NOTE: THESE ARE AUTOMATED STATIONS WITH LIMITED QUALITY CONTROL
      "FAIR" INDICATES FEW OR NO CLOUDS BELOW 12,000 FEET WITH NO
      SIGNIFICANT WEATHER AND/OR OBSTRUCTIONS TO VISIBILITY.
      SKY/WX - SKY CONDITION AND SIGNIFICANT WEATHER.
      TMP - AIR TEMPERATURE.    DP   - DEWPOINT TEMPERATURE.
      RH  - RELATIVE HUMIDITY.  PRES - PRESSURE.
      HX  - HEAT INDEX.         WCI  - WIND CHILL INDEX.
$



USA.gov is the U.S. government's official web portal to all federal, state and local government web resources and services.